Weather History for Fort Stockton, TX

Change the Weather History Date:

Saturday, January 18, 2014

  Actual Average Record
Temperature  
Mean Temperature 52 °F -  
Max Temperature 66 °F 61 °F 78 °F (2000)
Min Temperature 39 °F 37 °F 23 °F (2008)
Degree Days  
Heating Degree Days 12    
Growing Degree Days 2 (Base 50)    
Moisture  
Dew Point 19 °F    
Average Humidity 31    
Maximum Humidity 53    
Minimum Humidity 13    
Precipitation  
Precipitation 0.00 in - - ()
Sea Level Pressure  
Sea Level Pressure 30.09 in    
Wind  
Wind Speed 11 mph (West)    
Max Wind Speed 16 mph    
Max Gust Speed 23 mph    
Visibility 10 miles    
Events      
Averages and records for this station are not official NWS values.
T = Trace of Precipitation, MM = Missing Value Source: NWS Daily Summary

Daily Weather History Graph

Daily Weather History Graph

Search for Another Location

Airport:

Trip Planner

Search our weather history database for the weather conditions in past years. The results will help you decide how hot, cold, wet, or windy it might be!

Date:

Astronomy

Jan. 18, 2014 Rise Set
Actual Time 7:49 AM CST 6:15 PM CST
Civil Twilight 7:23 AM CST 6:40 PM CST
Nautical Twilight 6:54 AM CST 7:10 PM CST
Astronomical Twilight 6:25 AM CST 7:39 PM CST
Moon 8:45 PM CST (1/18) 9:02 AM CST (1/18)
Length of Visible Light 11h 17m
Length of Day
10h 25m
Waning Gibbous, 94% of the Moon is Illuminated
Jan 18
Waning Gibbous
Jan 23
Last Quarter
Jan 30
New
Feb 6
First Quarter
Feb 14
Full

Hourly Weather History & Observations

Time (CST) Temp. Windchill Dew Point Humidity Pressure Visibility Wind Dir Wind Speed Gust Speed Precip Events Conditions
12:53 AM 42.1 °F 35.2 °F 24.1 °F 49% 30.07 in 10.0 mi South 12.7 mph - N/A   Clear
1:53 AM 39.9 °F 32.9 °F 24.1 °F 53% 30.06 in 10.0 mi South 11.5 mph - N/A   Clear
2:53 AM 43.0 °F 36.0 °F 24.1 °F 47% 30.06 in 10.0 mi SSW 13.8 mph - N/A   Clear
3:53 AM 41.0 °F 33.5 °F 23.0 °F 49% 30.04 in 10.0 mi SW 13.8 mph - N/A   Clear
4:53 AM 42.1 °F 34.2 °F 23.0 °F 47% 30.04 in 10.0 mi SW 16.1 mph - N/A   Clear
5:53 AM 43.0 °F 36.4 °F 23.0 °F 45% 30.03 in 10.0 mi SW 12.7 mph - N/A   Clear
6:53 AM 43.0 °F 35.7 °F 21.9 °F 43% 30.05 in 10.0 mi SW 15.0 mph - N/A   Clear
7:53 AM 44.1 °F 37.1 °F 21.0 °F 40% 30.07 in 10.0 mi SW 15.0 mph - N/A   Clear
8:53 AM 48.0 °F - 21.0 °F 34% 30.07 in 10.0 mi SW 12.7 mph - N/A   Clear
9:53 AM 57.0 °F - 21.0 °F 25% 30.09 in 10.0 mi WSW 9.2 mph - N/A   Clear
10:53 AM 59.0 °F - 24.1 °F 26% 30.11 in 10.0 mi North 5.8 mph - N/A   Clear
11:53 AM 61.0 °F - 21.0 °F 21% 30.10 in 10.0 mi NNW 5.8 mph - N/A   Clear
12:53 PM 64.0 °F - 18.0 °F 17% 30.07 in 10.0 mi WNW 10.4 mph 23.0 mph N/A   Clear
1:53 PM 64.0 °F - 17.1 °F 16% 30.06 in 10.0 mi NNW 12.7 mph - N/A   Clear
2:53 PM 64.9 °F - 15.1 °F 15% 30.04 in 10.0 mi NNW 10.4 mph - N/A   Clear
3:53 PM 66.0 °F - 14.0 °F 13% 30.06 in 10.0 mi NNW 12.7 mph - N/A   Clear
4:53 PM 66.0 °F - 15.1 °F 14% 30.07 in 10.0 mi NNW 12.7 mph - N/A   Clear
5:53 PM 62.1 °F - 16.0 °F 17% 30.09 in 10.0 mi NW 6.9 mph - N/A   Clear
6:53 PM 55.9 °F - 15.1 °F 20% 30.12 in 10.0 mi WNW 8.1 mph - N/A   Clear
7:53 PM 52.0 °F - 15.1 °F 23% 30.14 in 10.0 mi West 9.2 mph - N/A   Clear
8:53 PM 51.1 °F - 16.0 °F 25% 30.16 in 10.0 mi WNW 8.1 mph - N/A   Clear
9:53 PM 50.0 °F - 16.0 °F 26% 30.18 in 10.0 mi NW 5.8 mph - N/A   Clear
10:53 PM 46.0 °F - 17.1 °F 31% 30.20 in 10.0 mi Calm Calm - N/A   Clear
11:53 PM 41.0 °F 36.4 °F 18.0 °F 40% 30.23 in 10.0 mi WSW 6.9 mph - N/A   Clear